Location: Sternwarte auf dem Internationalen Platz Vogelsang IP
(50.5721°N, 6.4398°E)
Time: 21:37:20
(UTC+01:00)

Transit 2A Rocket - Pass Details

Date: 19 December 2025
Orbit: 581 x 903 km, 66.7° (Epoch: 12 January)

Event Time Altitude Azimuth Distance (km) Brightness Sun altitude
Rises 17:22:47 0° 315° (NW) 3,524 8.7 -7.7°
Reaches altitude 10° 17:25:55 10° 300° (WNW) 2,558 8.2 -8.2°
Maximum altitude 17:30:10 21° 254° (WSW) 1,861 8.2 -8.8°
Drops below altitude 10° 17:34:15 10° 208° (SSW) 2,440 8.5 -9.4°
Sets 17:37:11 0° 192° (SSW) 3,314 8.9 -9.8°
